{"data":{"norad_id":59069,"epoch":"2026-05-25T03:54:16.337376Z","epoch_age_seconds":57148,"freshness":"FRESH","line1":"1 59069U 24040A   26145.16268909  .00000154  00000+0  00000+0 0  9996","line2":"2 59069   0.0663 327.9957 0003741  67.8814 299.1293  1.00272864  7098","mean_motion":1.00272864,"eccentricity":0.0003741,"inclination_deg":0.0663,"raan_deg":327.9957,"arg_perigee_deg":67.8814,"mean_anomaly_deg":299.1293,"bstar":0,"rev_number":709,"period_min":1436.0814507103,"perigee_km":35770.518767965,"apogee_km":35802.066194103,"semimajor_km":42164.429481034,"source":"CELESTRAK","updated_at":"2026-05-25T13:38:14.144902Z"}}